Время (UTC), дата Ветер
(°,м/с) 
Видим.   Явления Облачность Т
(°С)
Тd
(°С)
f(%) Тe
(°С)
Pmin
(гПа)
dP
(гПа)
Po
(мм)
O2
(г/м3)
Тmin Tmax R s Состояние
почвы
00 01.10.15 040 (СВ) 4{11}  8000 м    4/0 средняя, верхняя 
[Ac trans|Ci fib]
+15.4 +1.9 40 +15  1020  0.2  758  289           
03 01.10.15 040 (СВ) 8000 м    1/0 средняя 
[Ac trans]
+12.7 +5.8 63 +12  1020.8  0.7  759  291  +12.7         
06 01.10.15 040 (СВ) 10 км    ясно 
+14.1 +5.8 57 +13  1022  1.1  760  290  +12.4         
09 01.10.15 030 (СВ) 5{10}  10 км    ясно 
+19.5 +5.9 41 +20  1021.8  760  285           
12 01.10.15 050 (СВ) 6{10}  10 км    4/0 верхняя 
[Ci fib]
+23 +5.3 32 +23  1021.3  -0.3  759  281           
15 01.10.15 040 (СВ) 10 км    6/0 верхняя 
[Ci fib]
+20.1 +7 43 +20  1021.9  0.5  760  284    +23.2       
18 01.10.15 050 (СВ) 5{10}  8000 м    6/0 верхняя 
[Ci fib]
+15.4 +6 53 +15  1023.4  1.1  761  289           
21 01.10.15 050 (СВ) 8000 м    5/0 верхняя 
[Ci fib]
+12.4 +5.6 63 +12  1023.6  0.2  761  292           
00 02.10.15 040 (СВ) 8000 м    5/0 средняя, верхняя 
[Ac trans|Ci fib]
+12.1 +4.4 59 +12  1024.2  0.5  761  293           
03 02.10.15 020 (С) 8000 м    3/0 средняя 
[Ac trans]
+10.6 +2.9 59 +11  1024.1  -0.1  761  295  +9.1         
06 02.10.15 020 (С) 10 км    4/0 верхняя 
[Ci fib]
+15.1 +3.8 47 +16  1024.7  0.6  762  290           
09 02.10.15 330 (СЗ) 10 км    3/0 верхняя 
[Ci fib]
+19.5 +1.4 30 +20  1024  -0.5  761  286           
12 02.10.15 290 (З) 10 км    1/0 средняя 
[Ac trans]
+22.1 -4.2 17 +22  1022.4  -1.5  760  284           
18 02.10.15 270 (З) 8000 м    4/0 верхняя 
[Ci fib]
+15.7 +8.8 63 +16  1022.4  0.3  760  288           
21 02.10.15 280 (З) 8000 м    ясно 
+13.3 +5.5 59 +14  1022.1  -0.3  760  291           
00 03.10.15 280 (З) 8000 м    ясно 
+12.6 +1.1 45 +13  1021.9  -0.2  760  292           
03 03.10.15 280 (З) 8000 м    3/0 средняя 
[Ac trans]
+9.9 +2 58 +11  1021.5  -0.5  759  295  +10         
06 03.10.15 260 (З) 10 км    3/0 верхняя 
[Ci fib]
+16.3 +4.3 45 +16  1021.8  0.5  760  288  +8.9         
09 03.10.15 260 (З) 6{12}  10 км    4/0 верхняя 
[Ci fib]
+20.3 +2.2 30 +20  1020.8  -0.9  759  284           
12 03.10.15 260 (З) 7-10{12}  10 км    8/0 верхняя 
[Ci]
+21.4 +5.8 36 +21  1019.1  -1.5  758  282           
15 03.10.15 260 (З) 5{11}  8000 м    8/0 верхняя 
[Ci fib]
+18 +9.7 58 +19  1018.9  -0.4  758  285    +21.6       
18 03.10.15 260 (З) 4{11}  4000 м    6/0 верхняя 
[Ci fib]
+16.6 +12.7 78 +22  1020.1  758  286           
21 03.10.15 260 (З) 8000 м    ясно 
+14.5 -0.1 37 +15  1021.3  1.1  759  290           
00 04.10.15 320 (СЗ) 8000 м    ясно 
+12.2 +0.3 44 +12  1022.1  0.6  760  293           
03 04.10.15 030 (СВ) 8000 м    3/0 верхняя 
[Ci fib]
+9 +0.2 54 +10  1023.3  1.1  761  297  +7.7         
06 04.10.15 080 (В) 10 км    ясно 
+15.8 +3.5 44 +15  1024.5  1.3  762  290           
09 04.10.15 080 (В) 10 км    ясно 
+20.4 +5.4 37 +20  1024.4  0.1  762  285           
12 04.10.15 080 (В) 10 км    ясно 
+22 +4.7 32 +22  1023.5  -0.9  761  283           
15 04.10.15 080 (В) 8000 м    ясно 
+18.4 +5.2 42 +19  1023.2  -0.3  761  286    +22.2       
18 04.10.15 090 (В) 8000 м    ясно 
+16.3 +4.4 45 +16  1023.4  0.1  761  289           
21 04.10.15 090 (В) 8000 м    ясно 
+13.8 +2.2 45 +13  1022.3  -1.1  760  291           
00 05.10.15 080 (В) 8000 м    ясно 
+9.4 +2.5 62 +9  1021.7  -0.6  759  295           
03 05.10.15 070 (В) 8000 м    1/0 верхняя 
[Ci fib]
+8.4 +3.4 71 +8  1021.6  -0.2  759  296  +8.4         
06 05.10.15 090 (В) 10 км    4/0 верхняя 
[Ci fib]
+13.5 +4 53 +14  1021  -0.3  759  291  +8         
09 05.10.15 100 (В) 10 км    3/0 верхняя 
[Ci fib]
+20.9 +4 33 +21  1019.2  -1.6  758  283           
12 05.10.15 350 (С) 10 км    5/0 верхняя 
[Ci fib]
+23.7 +3.3 26 +24  1016.8  -2.1  756  280           
15 05.10.15 070 (В) 8000 м    5/0 средняя, верхняя 
[Ac trans|Ci fib]
+19.1 +4.4 38 +20  1016  -1  755  284    +24.5       
18 05.10.15 050 (СВ) 8000 м  дым  3/0 средняя 
[Ac trans]
+15 +3.7 47 +15  1015.3  -0.6  755  288           
21 05.10.15 070 (В) 8000 м  дым  4/0 средняя 
[Ac trans]
+12.6 +5.5 62 +12  1014.2  -1.2  754  290           
00 06.10.15 060 (СВ) 6000 м  дым  4/0 средняя 
[Ac trans]
+10.3 +5.7 73 +10  1013.3  -0.8  753  292           
03 06.10.15 070 (В) 8000 м  дым  4/0 средняя, верхняя 
[Ac trans|Ci fib]
+8.5 +5.4 81 +8  1012.2  -1.1  752  293  +8.4         
06 06.10.15 090 (В) 10 км    6/0 верхняя 
[Ci]
+15.2 +8.2 63 +17  1012.2  0.2  752  286  +8.3         
09 06.10.15 160 (Ю) 10 км    6/0 верхняя 
[Ci]
+21.6 +7.1 39 +22  1010.4  -1.5  751  279           
12 06.10.15 220 (ЮЗ) 10 км    8/0 верхняя 
[Ci]
+24.4 +1 22 +24  1008  -2.4  750  277           
15 06.10.15 300 (СЗ) 8000 м    6/0 верхняя 
[Ci]
+18.2 +4.7 41 +19  1007.3  -0.7  749  282    +24.4       
18 06.10.15 тихо ()   6000 м  дым  6/0 верхняя 
[Ci fib]
+14.3 +4.5 52 +14  1006.5  -0.9  748  286           
21 06.10.15 тихо ()   8000 м  дым  6/0 верхняя 
[Ci fib]
+12.4 +4.4 58 +12  1006  -0.5  748  288           
00 07.10.15 тихо ()   8000 м  дым  3/0 верхняя 
[Ci fib]
+9.6 +4.6 71 +10  1004.8  -1.2  747  290           
03 07.10.15 тихо ()   6000 м  дым  8/0 средняя, верхняя 
[Ac trans|Ci fib]
+9.7 +5.5 75 +10  1003.9  -1  746  289  +8.8         
06 07.10.15 010 (С) 10 км    9/0 средняя, верхняя 
[Ac trans|Ci]
+14 +3.7 50 +13  1004.2  0.4  747  286           
09 07.10.15 360 (С) 8-12{12}  10 км    6/3 600 м средняя, верхняя 
[Sc|Ac trans|Ci fib]
+14 +7.2 64 +13  1005  0.8  747  285           
12 07.10.15 010 (С) 7-11{15}  10 км    10/5 750 м средняя 
[Sc|Ac und]
+9 +2.8 65 +7  1007.5  2.1  749  292           
15 07.10.15 010 (С) 8-12{15}  8000 м  слаб. ливневой дождь  10/8 480 м кучево-дожд., средняя 
[Cb calv|Ac und]
+4 +1.8 85 +1  1011.1  3.3  751  298    +16.4     
18 07.10.15 010 (С) 6-11{15}  8000 м  {ливн. осадки, дождь}  6/4 300 м средняя 
[Sc|Ac trans]
+3 -2.4 68 1014.2  2.9  754  301           
21 07.10.15 360 (С) 8000 м    ясно 
+1.2 -5.5 61 -1  1016.4  2.1  755  304           
00 08.10.15 330 (СЗ) 2{11}  8000 м    3/0 средняя 
[Ac trans]
-0.7 -5.1 72 -2  1019  2.3  757  306           
03 08.10.15 330 (СЗ) 8000 м    1/0 средняя 
[Ac trans]
-1.7 -5.6 75 -4  1020.8  1.8  758  308  -1.8    0.0     
06 08.10.15 330 (СЗ) 10 км    1/0 верхняя 
[Ci fib]
+3.9 -5.3 51 +3  1022.8  1.8  760  303           
09 08.10.15 320 (СЗ) 10 км    4/4 1000 м 
[Sc]
+6.4 -6.6 39 +5  1023.2  0.7  760  300           
12 08.10.15 300 (СЗ) 10 км    1/1 1000 м 
[Sc]
+8 -8.6 30 +7  1023  760  299           
15 08.10.15 350 (С) 8000 м    ясно 
+6.7 -9 32 +7  1023.6  0.4  761  300    +8.6       
18 08.10.15 240 (ЮЗ) 8000 м  дым  ясно 
+1.8 -5.9 57 +3  1024.4  0.6  761  305           
21 08.10.15 020 (С) 8000 м    ясно 
+0 -6 64 +1  1024  -0.4  761  307           
00 09.10.15 тихо ()   8000 м    ясно 
-0.8 -6 68 -1  1022.8  -1.1  760  308           
03 09.10.15 тихо ()   4600 м  дымка  3/0 средняя 
[Ac trans]
-3.1 -4.9 87 -3  1022.5  -0.4  760  310  -3.3         
06 09.10.15 220 (ЮЗ) 4700 м  дым  ясно 
+5.5 -2.8 55 +5  1022.3  0.1  760  300           
09 09.10.15 350 (С) 10 км    5/1 600 м средняя 
[Sc|Ac trans]
+9.1 -8 29 +9  1020.6  -1.5  759  297           
12 09.10.15 300 (СЗ) 10 км    4/1 600 м средняя 
[Sc|Ac trans]
+9.9 -9.3 25 +9  1019.3  -1.3  758  295           
15 09.10.15 270 (З) 8000 м    3/0 средняя, верхняя 
[Ac trans|Ci fib]
+7.6 -6.3 37 +7  1020.2  0.7  758  298    +10.1       
18 09.10.15 330 (СЗ) 8000 м    3/0 верхняя 
[Ci fib]
+4.7 -5 49 +4  1021.2  0.9  759  301           
21 09.10.15 290 (З) 8000 м    ясно 
+1.4 -6.4 56 +2  1022.1  0.7  760  305           
00 10.10.15 310 (СЗ) 8000 м    ясно 
+1.6 -7.1 52 +1  1022.7  0.6  760  305           
03 10.10.15 320 (СЗ) 8000 м    ясно 
-0.2 -8.1 55 -1  1023.1  0.2  760  307  -0.3         
06 10.10.15 290 (З) 10 км    ясно 
+4.1 -8.4 40 +3  1024.2  1.2  761  303  -0.5         
09 10.10.15 300 (СЗ) 10 км    ясно 
+6.9 -8.9 31 +5  1024.1  -0.1  761  300           
12 10.10.15 270 (З) 4{10}  10 км    ясно 
+8.6 -9.1 28 +7  1022.8  -1.2  760  298           
15 10.10.15 250 (З) 8000 м    1/0 средняя 
[Ac trans]
+6.7 -5 43 +6  1023.5  0.5  761  300    +9.2       
18 10.10.15 310 (СЗ) 8000 м    1/0 средняя 
[Ac trans]
+2.2 -6.4 53 +3  1024.7  761  305           
21 10.10.15 310 (СЗ) 8000 м    ясно 
+0.1 -5.6 66 +1  1025.3  0.5  762  307           
00 11.10.15 340 (С) 8000 м    ясно 
-0.6 -6.3 65 -1  1025  -0.2  762  308           
03 11.10.15 300 (СЗ) 8000 м    3/0 средняя 
[Ac trans]
-0.6 -6 67 1025.1  762  308  -2.5         
06 11.10.15 250 (З) 10 км    5/0 средняя, верхняя 
[Ac trans|Ci fib]
+5.4 -6.6 42 +6  1025.1  0.1  762  302  -2.7         
09 11.10.15 340 (С) 10 км    6/0 верхняя 
[Ci fib]
+9 -7.9 29 +9  1024  -1  761  298           
12 11.10.15 210 (ЮЗ) 10 км    8/0 верхняя 
[Ci]
+11.2 -8.2 25 +12  1022.5  -1.4  760  295           
15 11.10.15 070 (В) 8000 м    9/0 верхняя 
[Ci]
+7.3 -8.9 31 +7  1022.4  -0.1  760  299    +11.7       
18 11.10.15 050 (СВ) 6000 м  дым  5/0 верхняя 
[Ci fib]
+4 -8.8 39 +4  1022.3  -0.1  760  303           
21 11.10.15 060 (СВ) 7000 м  дым  8/0 средняя, верхняя 
[Ac trans|Ci fib]
+4.9 -7.9 39 +3  1022.6  0.3  760  302           
00 12.10.15 070 (В) 7{10}  8000 м    9/0 средняя 
[Ac trans]
+5.4 -6 44 +3  1022.7  760  301           
03 12.10.15 060 (СВ) 8000 м    9/0 средняя, верхняя 
[Ac trans|Ci fib]
+4.1 -5.8 49 +2  1022.9  0.2  760  302  +3.7         
06 12.10.15 080 (В) 7-10{10}  10 км    9/0 средняя, верхняя 
[Ac trans|Ci fib]
+6.3 -6 41 +4  1024.3  1.2  761  300           
09 12.10.15 080 (В) 9-11{13}  10 км    3/0 средняя, верхняя 
[Ac trans|Ci fib]
+9.9 -6.3 31 +8  1024.6  0.3  762  297           
12 12.10.15 070 (В) 8-12{13}  10 км    3/0 верхняя 
[Ci fib]
+10.4 -6.6 30 +8  1024  -0.5  761  296           
15 12.10.15 070 (В) 7-10{13}  8000 м    6/0 средняя, верхняя 
[Ac trans|Ci fib]
+7 -9.2 30 +5  1025.9  1.6  762  300    +11.2       
18 12.10.15 070 (В) 7-10{13}  8000 м    6/0 средняя, верхняя 
[Ac trans|Ci]
+5 -9.5 34 +2  1027.3  1.4  764  303           
21 12.10.15 070 (В) 8-10{13}  8000 м    5/0 верхняя 
[Ci fib]
+3.2 -8.5 42 1027.6  0.3  764  305           
00 13.10.15 080 (В) 8-10{13}  8000 м    ясно 
+1.4 -7.1 53 -3  1027.7  764  307           
03 13.10.15 080 (В) 7-10{12}  8000 м    ясно 
+0.2 -7.8 55 -4  1028.1  0.4  764  308  +0.1         
06 13.10.15 080 (В) 8-11{12}  10 км    4/0 средняя, верхняя 
[Ac trans|Ci fib]
+2 -8.5 46 -2  1028.4  0.2  764  307  -0.1         
09 13.10.15 090 (В) 10-14{15}  10 км    6/0 средняя, верхняя 
[Ac trans|Ci fib]
+7.8 -7.7 32 +5  1027  -0.7  763  300           
12 13.10.15 090 (В) 10-13{15}  10 км    5/0 средняя, верхняя 
[Ac trans|Ci fib]
+9.2 -8.4 28 +7  1026.1  -0.9  763  298           
15 13.10.15 070 (В) 9-12{14}  8000 м    8/0 средняя 
[Ac trans]
+6.7 -8.5 33 +4  1026.4  0.2  763  301    +9.6       
18 13.10.15 080 (В) 10-14{15}  8000 м    9/4 1000 м средняя 
[Sc|Ac trans]
+5.7 -9.6 32 +2  1026.2  -0.2  763  302           
21 13.10.15 080 (В) 9-12{14}  8000 м    9/5 900 м средняя 
[Sc|Ac trans]
+4.3 -9.7 35 +1  1026.4  0.1  763  304           
00 14.10.15 080 (В) 8-12{14}  8000 м    9/5 900 м средняя 
[Sc|Ac trans]
+3.7 -8.9 39 1025.8  -0.5  762  304           
03 14.10.15 080 (В) 8-10{14}  8000 м    9/5 900 м средняя 
[Sc|Ac trans]
+3.6 -7.4 44 1025.7  -0.1  762  304  +3.5         
06 14.10.15 080 (В) 8-11{14}  10 км  слаб. дождь  9/5 1080 м средняя 
[Sc|Ac trans]
+4.5 -5 50 +1  1026.2  0.4  763  303           
09 14.10.15 080 (В) 11-15{15}  10 км  в посл. час дождь  9/4 1000 м средняя 
[Sc|Ac trans]
+7.4 -2.6 49 +4  1025.2  -0.8  762  299           
12 14.10.15 090 (В) 10-14{15}  10 км  {дождь}  9/5 1080 м средняя 
[Sc|Ac trans]
+8.5 -2.3 47 +6  1025  -0.1  762  298           
15 14.10.15 100 (В) 9-12{16}  8000 м  в посл. час дождь  9/9 1000 м 
[Sc]
+6.9 +0.1 62 +4  1025.8  0.7  762  300    +8.5  0.0     
18 14.10.15 080 (В) 9-12{13}  2600 м  слаб. дождь  10/5 210 м средняя 
[Frnb|As op]
+4.9 +3.6 91 +1  1025.6  -0.2  762  301           
21 14.10.15 080 (В) 8-10{14}  2000 м  слаб. дождь  10/6 120 м средняя 
[Frnb|As op]
+5.1 +4.2 94 +2  1024.6  -0.9  761  301           
00 15.10.15 080 (В) 7-10{14}  2500 м  слаб. дождь  10/6 120 м средняя 
[Frnb|As op]
+5.2 +4.4 95 +2  1024.5  -0.1  761  300           
03 15.10.15 070 (В) 7-10{10}  4100 м  слаб. дождь  10/8 150 м средняя 
[Frnb|As op]
+4.7 +3.9 94 +2  1024.3  -0.2  761  301  +4.7       
06 15.10.15 070 (В) 8-11{12}  1200 м  слаб. морось{дождь}  10/10 210 м 
[St]
+4.8 +3.9 94 +2  1025.1  0.8  762  301  +4.4         
09 15.10.15 070 (В) 7-11{12}  2000 м  слаб. морось  10/10 180 м 
[St]
+5.8 +4.8 93 +3  1026.1  0.9  763  300           
12 15.10.15 060 (СВ) 7{13}  2800 м  слаб. морось  10/10 210 м 
[St]
+6.2 +5.1 93 +4  1026.9  0.8  763  300           
15 15.10.15 050 (СВ) 4{10}  5000 м  слаб. морось  10/10 270 м 
[St]
+6.1 +5.1 93 +5  1028.1  1.1  764  300    +6.5     
18 15.10.15 040 (СВ) 4{10}  8000 м  {морось}  4/0 средняя 
[Ac trans]
+4.7 +2.6 86 +3  1029.5  1.2  765  303           
21 15.10.15 060 (СВ) 8000 м    1/0 средняя 
[Ac trans]
+2.6 +0.9 89 +1  1029.7  0.1  765  305           
00 16.10.15 040 (СВ) 8000 м    1/0 средняя 
[Ac trans]
+1.6 +0.1 90 +1  1030.7  0.8  766  307           
03 16.10.15 040 (СВ) 8000 м    3/0 средняя 
[Ac trans]
+1 -0.8 88 1031.4  0.6  766  308  +0.3    0.0     
06 16.10.15 060 (СВ) 10 км    5/0 средняя, верхняя 
[Ac trans|Ci fib]
+4.6 +1 77 +3  1032.9  1.6  768  304  -0.2         
09 16.10.15 100 (В) 10 км    4/1 600 м средняя, верхняя 
[Sc|Ac trans|Ci fib]
+9.6 -0.2 50 +8  1032.9  0.2  768  299           
12 16.10.15 070 (В) 5{10}  10 км    4/1 600 м средняя 
[Sc|Ac trans]
+11.2 -2.2 39 +10  1032.4  -0.5  767  297           
15 16.10.15 040 (СВ) 8000 м    1/0 средняя 
[Ac trans]
+7.2 -1.3 55 +6  1033.2  0.6  768  302    +11.2       
18 16.10.15 050 (СВ) 8000 м    ясно 
+4.8 -1.4 64 +4  1033.7  0.4  768  304           
21 16.10.15 070 (В) 8000 м    ясно 
+3.4 -2 68 +2  1034  0.1  768  306           
00 17.10.15 060 (СВ) 8000 м    3/0 верхняя 
[Ci fib]
+2.1 -2.2 73 1034.1  0.1  768  308           
03 17.10.15 070 (В) 8000 м    3/0 верхняя 
[Ci fib]
-0.4 -2.9 83 -2  1034.2  768  310  -0.3         
06 17.10.15 080 (В) 10 км    ясно 
+5.8 -0.4 64 +4  1034.3  0.2  769  303  -0.6         
09 17.10.15 090 (В) 6-10  10 км    1/0 верхняя 
[Ci fib]
+10.7 -0.4 46 +9  1033.1  -1  768  298           
12 17.10.15 110 (В) 7{10}  10 км    4/0 верхняя 
[Ci fib]
+11.7 -0.6 43 +10  1030.9  -2  766  296           
15 17.10.15 090 (В) 8000 м    5/0 верхняя 
[Ci fib]
+7.6 +0 59 +6  1030.1  -1.1  766  300    +12.1       
18 17.10.15 080 (В) 8000 м    4/0 верхняя 
[Ci fib]
+6.4 +0 64 +5  1029  -1  765  301           
21 17.10.15 080 (В) 8000 м    ясно 
+4.6 +0.2 73 +2  1028  -1.1  764  303           
00 18.10.15 090 (В) 8000 м    ясно 
+3.8 -0.2 75 +1  1026.2  -1.7  763  303           
03 18.10.15 080 (В) 8000 м    1/0 средняя 
[Ac trans]
+2.2 -0.7 81 1025.4  -0.8  762  305  +1.8         
06 18.10.15 080 (В) 10 км    6/0 средняя, верхняя 
[Ac trans|Ci fib]
+5 +0.8 74 +2  1024.3  -0.9  761  301           
09 18.10.15 100 (В) 10 км    6/0 средняя, верхняя 
[Ac trans|Ci fib]
+10.8 +2.6 57 +9  1022.6  -1.5  760  294           
12 18.10.15 090 (В) 10 км    8/0 средняя, верхняя 
[Ac trans|Ci fib]
+14.6 +2.5 44 +14  1020.4  -2  759  290           
15 18.10.15 080 (В) 8000 м    5/0 верхняя 
[Ci fib]
+10 +4.1 67 +10  1020.2  -0.3  758  294    +14.8       
18 18.10.15 080 (В) 8000 м    3/0 верхняя 
[Ci fib]
+8.7 +4.8 77 +8  1018.8  -1.5  757  295           
21 18.10.15 070 (В) 8000 м    3/0 средняя 
[Ac trans]
+5.6 +3.1 84 +5  1018  -0.8  757  298           
00 19.10.15 050 (СВ) 6000 м  дымка  5/0 средняя, верхняя 
[Ac trans|Ci fib]
+5.7 +3.9 88 +7  1017.1  -0.8  756  298           
03 19.10.15 тихо ()   3800 м  местами туман поземный  6/0 средняя 
[Ac trans]
+4 +3.4 96 +4  1017  -0.3  756  300  +3.1         
06 19.10.15 250 (З) 4000 м  дымка{туман}  6/0 средняя, верхняя 
[Ac trans|Ci fib]
+7.8 +5.6 86 +9  1017.1  0.3  756  295  +2.5         
09 19.10.15 250 (З) 10 км    6/0 средняя, верхняя 
[Ac trans|Ci fib]
+13.9 +3.5 49 +14  1016.7  -0.1  756  289           
12 19.10.15 250 (З) 10 км    6/0 средняя, верхняя 
[Ac trans|Ci fib]
+15.1 +1.9 41 +15  1016  -0.6  755  288           
15 19.10.15 270 (З) 8000 м    6/0 средняя, верхняя 
[Ac trans|Ci fib]
+11.5 +6 69 +11  1016.5  0.2  756  291    +15.7       
18 19.10.15 300 (СЗ) 8000 м  дымка  5/0 средняя, верхняя 
[Ac trans|Ci fib]
+9.6 +6.1 79 +10  1016.9  0.3  756  293           
21 19.10.15 300 (СЗ) 5000 м  дымка  5/0 средняя, верхняя 
[Ac trans|Ci fib]
+8.3 +4.3 76 +8  1017.6  0.6  756  295           
00 20.10.15 300 (СЗ) 4500 м  дымка  5/0 средняя, верхняя 
[Ac trans|Ci fib]
+7.6 +2.7 71 +8  1018.3  0.6  757  296           
03 20.10.15 340 (С) 3500 м  дымка  3/0 средняя 
[Ac trans]
+6.4 +2.7 77 +5  1019.1  0.7  757  298  +5.9         
06 20.10.15 050 (СВ) 3300 м  дымка  6/0 средняя, верхняя 
[Ac trans|Ci fib]
+9 +4.6 74 +8  1020.5  1.5  759  295  +4.9         
09 20.10.15 040 (СВ) 5000 м  мгла{туман}  8/0 средняя, верхняя 
[Ac trans|Ci]
+11.8 +3.1 55 +11  1021.3  0.8  759  293           
12 20.10.15 050 (СВ) 6000 м  мгла  8/3 1000 м средняя, верхняя 
[Sc|Ac trans|Ci]
+13.3 +2.6 48 +13  1021  -0.1  759  291           
15 20.10.15 050 (СВ) 6000 м  мгла  6/0 средняя, верхняя 
[Ac trans|Ci fib]
+8.3 +2.2 65 +7  1022.8  1.5  760  297    +13.4       
18 20.10.15 080 (В) 9-12{14}  8000 м    6/0 средняя, верхняя 
[Ac trans|Ci fib]
+6.5 -1.2 58 +3  1023.9  0.9  761  300           
21 20.10.15 080 (В) 7-10{13}  8000 м    8/0 средняя, верхняя 
[Ac trans|Ci fib]
+2.6 -5.3 56 -1  1024.8  0.7  762  305           
00 21.10.15 070 (В) 7-10{13}  8000 м    4/0 верхняя 
[Ci fib]
+0.9 -4.7 66 -3  1024.5  -0.2  761  306           
03 21.10.15 080 (В) 8-11{12}  8000 м    4/0 верхняя 
[Ci fib]
-0.7 -5.6 69 -5  1024.2  -0.3  761  308  -0.7         
06 21.10.15 090 (В) 8-11{12}  10 км    5/0 средняя, верхняя 
[Ac trans|Ci fib]
+1.9 -5.5 58 -2  1024.5  0.3  761  305  -1.1         
09 21.10.15 090 (В) 11-15{15}  10 км    8/0 средняя, верхняя 
[Ac trans|Ci fib]
+6.9 -4.5 44 +3  1023.1  -1  760  299           
12 21.10.15 090 (В) 11-15{16}  10 км    9/0 средняя, верхняя 
[Ac trans|Ci fib]
+7.6 -4.3 43 +4  1021.9  -1.1  760  298           
15 21.10.15 090 (В) 10-13{15}  8000 м    9/0 средняя 
[Ac trans]
+6.4 -5.3 43 +3  1021.6  -0.3  759  300    +8.4       
18 21.10.15 100 (В) 9-12{15}  8000 м    9/4 600 м средняя 
[Sc|Ac trans]
+6.1 -5.3 44 +3  1021.4  759  300           
21 21.10.15 100 (В) 9-13{15}  8000 м  слаб. дождь  9/5 900 м средняя 
[Sc|Ac trans]
+5.1 -4.7 49 +2  1020.1  -1.3  758  300           
00 22.10.15 090 (В) 9-13{15}  8000 м  {дождь}  8/4 600 м средняя 
[Sc|Ac trans]
+5.2 -5.1 47 +2  1018.8  -1.3  757  300           
03 22.10.15 100 (В) 10-13{15}  8000 м    8/3 600 м средняя, верхняя 
[Sc|Ac trans|Ci]
+4.8 -2.3 60 +1  1018.4  -0.4  757  300  +4.8    0.0     
06 22.10.15 090 (В) 10-12{15}  10 км  слаб. ливневой дождь  10/6 1200 м кучево-дожд., средняя 
[Cb calv|Ac und]
+3.9 +1.3 83 1017.7  -0.5  756  300  +3.9         
09 22.10.15 090 (В) 8-10{14}  4300 м  слаб. ливневой дождь  10/5 1000 м кучево-дожд., средняя 
[Cb calv|Ac und]
+4.8 +3.5 91 +2  1017.3  -0.2  756  299           
12 22.10.15 090 (В) 7-10{14}  5000 м  слаб. ливневой дождь  10/8 180 м кучево-дожд., средняя 
[Cb calv|Ac und]
+6 +5.1 94 +3  1016.2  -1.2  755  297           
15 22.10.15 090 (В) 7{11}  3800 м  слаб. дождь{ливн. осадки}  10/6 100 м средняя 
[Frnb|As op]
+6.9 +6.1 95 +4  1016  -0.1  755  296    +6.9     
18 22.10.15 100 (В) 6{11}  2200 м  слаб. дождь{ливн. осадки}  10/8 60 м средняя 
[Frnb|As op]
+8.3 +7.5 95 +6  1015.6  -0.3  755  294           
21 22.10.15 100 (В) 7000 м  дымка{дождь}  10/10 420 м 
[Sc]
+8.8 +8 95 +7  1014.5  -1  754  293           
00 23.10.15 090 (В) 5000 м  в посл. час дождь  10/8 240 м средняя 
[Frnb|As op]
+8.7 +7.8 94 +8  1014.2  -0.3  754  293           
03 23.10.15 090 (В) 6000 м  дымка  10/8 100 м средняя 
[St|Ac und]
+8.2 +7.3 94 +7  1013.7  -0.4  753  294  +6.9       
06 23.10.15 090 (В) 5000 м  слаб. дождь  10/8 150 м средняя 
[Frnb|As op]
+7.9 +6.9 93 +6  1013.7  753  294           
09 23.10.15 090 (В) 3900 м  слаб. ливневой дождь  10/6 120 м кучево-дожд., средняя 
[Cb calv|As op]
+9.2 +8.3 94 +8  1012.6  -1.1  753  292           
12 23.10.15 050 (СВ) 3900 м  слаб. ливневой дождь  10/6 120 м кучево-дожд., средняя 
[Cb calv|As op]
+10 +9.1 94 +10  1012.2  -0.5  752  291           
15 23.10.15 050 (СВ) 3200 м  слаб. ливневой дождь  10/6 180 м кучево-дожд., средняя 
[Cb calv|As op]
+10.1 +9.2 94 +11  1012.5  0.3  753  291    +10.1     
18 23.10.15 340 (С) 4600 м  слаб. ливневой дождь  10/6 120 м кучево-дожд., средняя 
[Cb calv|As trans]
+9.9 +9.1 95 +9  1012.7  0.1  753  291           
21 23.10.15 360 (С) 8000 м  в посл. час ливневой дождь  10/6 180 м кучево-дожд., средняя 
[Cb calv|As op]
+9.1 +8 93 +9  1013.1  0.3  753  292           
00 24.10.15 360 (С) 8000 м  {ливн. осадки}  10/6 210 м кучево-дожд., средняя 
[Cb calv|As op]
+7.9 +6.6 92 +7  1013.5  0.3  753  294           
03 24.10.15 360 (С) 10 км  слаб. дождь  10/6 210 м средняя 
[Frnb|As op]
+7.2 +5.9 91 +6  1013.6  0.1  753  295  +7.2       
06 24.10.15 020 (С) 4200 м  слаб. дождь{морось}  10/8 180 м средняя 
[Sc|As op]
+6.5 +5.3 92 +6  1014.3  0.6  754  296  +6.5         
09 24.10.15 360 (С) 5000 м  слаб. дождь  10/8 180 м средняя 
[Frnb|As op]
+6.8 +5.6 92 +6  1014.4  0.1  754  296           
12 24.10.15 010 (С) 6000 м  в посл. час дождь  10/8 180 м средняя 
[Frnb|As op]
+7.4 +6.1 91 +6  1013.6  -0.8  753  295           
15 24.10.15 010 (С) 4600 м  слаб. дождь  10/8 210 м средняя 
[Frnb|As op]
+6.9 +5.7 92 +6  1014.4  0.8  754  295    +7.5     
18 24.10.15 350 (С) 4900 м  слаб. дождь  10/8 270 м средняя 
[Frnb|As op]
+5.9 +4.7 92 +4  1015.4  0.9  755  297           
21 24.10.15 330 (СЗ) 6000 м  в посл. час дождь  9/5 240 м средняя 
[St|Ac trans]
+5.1 +3.8 91 +3  1016.2  0.9  755  298           
00 25.10.15 310 (СЗ) 8000 м  {дождь}  6/0 средняя 
[Ac trans]
+3.7 +2.4 91 +3  1017.4  1.1  756  300           
03 25.10.15 310 (СЗ) 8000 м    4/0 средняя 
[Ac trans]
+2.7 +1.3 91 +1  1017.9  0.4  756  302  +2.6       
06 25.10.15 300 (СЗ) 10 км    9/3 600 м средняя 
[Sc|Ac trans]
+4.5 +1.8 83 +4  1018.9  0.8  757  300           
09 25.10.15 300 (СЗ) 10 км    9/0 средняя 
[Ac trans]
+6.3 +3.1 80 +5  1019.1  0.4  757  298           
12 25.10.15 310 (СЗ) 10 км    9/5 800 м средняя 
[Sc|Ac trans]
+8 +2 66 +8  1019.5  0.3  758  296           
15 25.10.15 260 (З) 8000 м    9/3 600 м средняя 
[Sc|Ac trans]
+6.4 +2.6 77 +5  1020.3  0.7  758  298    +8.2       
18 25.10.15 250 (З) 8000 м  слаб. дождь  9/6 800 м средняя 
[Sc|Ac trans]
+6.6 +3.7 82 +6  1020.5  758  298           
21 25.10.15 140 (ЮВ) 7000 м  в посл. час дождь  10/6 630 м средняя 
[Sc|Ac trans]
+6.4 +4.1 85 +6  1019.8  -0.6  758  298           
00 26.10.15 250 (З) 7000 м  дымка{дождь}  10/6 330 м средняя 
[Sc|Ac trans]
+7 +5.5 90 +6  1019.5  -0.2  758  297           
03 26.10.15 230 (ЮЗ) 3800 м  дымка  10/8 180 м средняя 
[Sc|Ac und]
+7.2 +6 92 +7  1019.6  758  297  +6.2    0.0     
06 26.10.15 260 (З) 1100 м  дымка{туман}  10/10 100 м 
[St]
+7.4 +6.4 93 +7  1019.6  758  296           
09 26.10.15 250 (З) 4400 м  дымка{морось}  10/8 210 м средняя 
[Sc|Ac und]
+8.2 +6.3 88 +7  1019.4  -0.1  758  295           
12 26.10.15 230 (ЮЗ) 5000 м  дымка{морось}  10/6 400 м средняя 
[Sc|Ac und]
+9.1 +6.7 85 +8  1018.3  -1.1  757  294           
15 26.10.15 250 (З) 3200 м  дымка{дождь}  10/10 150 м 
[St]
+7.6 +6.2 91 +6  1018.3  757  296    +9.2  0.0     
18 26.10.15 230 (ЮЗ) 1700 м  дымка{дождь}  8/6 180 м средняя 
[St|Ac trans]
+6.4 +5.3 93 +5  1017.8  -0.4  756  297           
21 26.10.15 230 (ЮЗ) 5000 м  слаб. дождь  10/8 630 м средняя 
[Sc|As op]
+7.5 +6.1 91 +6  1016.6  -1.1  756  295           
00 27.10.15 270 (З) 6000 м  в посл. час ливневой дождь  9/3 600 м кучево-дожд., средняя 
[Cb calv|Ac trans]
+8.1 +6.8 91 +8  1016.7  0.1  756  295           
03 27.10.15 260 (З) 4600 м  дымка{туман}  6/0 средняя, верхняя 
[Ac trans|Ci fib]
+5.8 +4.7 93 +6  1016.9  756  297  +5.9       
06 27.10.15 290 (З) 10 км  {туман}  4/0 средняя, верхняя 
[Ac trans|Ci fib]
+6.8 +3.9 82 +7  1018.1  1.1  757  297  +5.4         
09 27.10.15 270 (З) 10 км    6/6 800 м 
[Sc]
+10.1 +3.2 62 +9  1018.9  0.8  757  294           
12 27.10.15 270 (З) 3{10}  10 км    9/6 800 м средняя 
[Sc|Ac trans]
+9.1 +4 70 +9  1019.4  0.5  758  295           
15 27.10.15 270 (З) 8000 м    10/8 840 м средняя 
[Sc|Ac und]
+8.2 +4.9 80 +8  1020.3  0.7  758  296    +10.6       
18 27.10.15 280 (З) 6000 м  дымка{дождь}  10/3 600 м средняя 
[Sc|Ac und]
+8.1 +4.9 80 +8  1021  0.6  759  296           
21 27.10.15 280 (З) 5000 м  дымка  6/0 средняя 
[Ac trans]
+6.4 +4.5 88 +6  1021.4  0.3  759  298           
00 28.10.15 280 (З) 4100 м  местами туман поземный  4/0 средняя 
[Ac trans]
+5.5 +4.4 93 +5  1021.4  759  299           
03 28.10.15 280 (З) 1300 м  в посл. час переохл. осадки (гололёд)  10/10 150 м 
[St]
+5.1 +4.1 93 +5  1021.3  -0.1  759  300  +3.8    0.0     
06 28.10.15 260 (З) 4000 м  дымка{дождь}  9/5 570 м средняя 
[Sc|Ac trans]
+7.2 +5.5 89 +7  1021.7  0.5  759  297           
09 28.10.15 280 (З) 10 км    8/6 630 м средняя 
[Sc|Ac trans]
+9.4 +2.8 63 +8  1020.9  -0.7  759  295           
12 28.10.15 270 (З) 4{11}  10 км    10/6 870 м средняя 
[Sc|Ac und]
+8.8 +3.6 70 +8  1019.9  -0.9  758  295           
15 28.10.15 260 (З) 7000 м  дым  3/0 средняя 
[Ac trans]
+7.2 +4.3 82 +6  1020.9  0.8  759  297    +9.7       
18 28.10.15 270 (З) 7000 м  дым  9/0 средняя 
[Ac trans]
+7.5 +4.1 79 +7  1021.5  0.6  759  297           
21 28.10.15 010 (С) 6{10}  8000 м    6/1 600 м средняя 
[Sc|Ac trans]
+3.8 -1.6 68 +1  1023.6  761  303           
00 29.10.15 040 (СВ) 1{10}  8000 м    ясно 
+0.4 -3.5 75 +1  1025.3  1.4  762  307           
03 29.10.15 340 (С) 8000 м    ясно 
-0.3 -3.3 80 -2  1026.4  1.1  763  308  -0.3         
06 29.10.15 360 (С) 10 км    ясно 
+2.2 -3.1 68 1028.1  1.8  764  306  -0.9         
09 29.10.15 020 (С) 10 км    ясно 
+5.2 -2.8 56 +3  1029  0.9  765  303           
12 29.10.15 040 (СВ) 10 км    ясно 
+6.7 -2.6 51 +6  1028.9  765  301           
15 29.10.15 360 (С) 8000 м    ясно 
+4.2 -2.4 62 +3  1030.1  766  304    +6.9       
18 29.10.15 060 (СВ) 8000 м    ясно 
+0.3 -3.5 76 -1  1031.5  1.3  767  309           
21 29.10.15 070 (В) 8000 м    ясно 
+0.4 -3.2 77 1031.8  0.3  767  309           
00 30.10.15 060 (СВ) 8000 м    3/0 верхняя 
[Ci fib]
-1.3 -3.9 83 -2  1032.1  0.1  767  311           
03 30.10.15 070 (В) 8000 м    ясно 
-2.6 -4.2 89 -4  1032.2  0.1  767  313  -3.1         
06 30.10.15 060 (СВ) 10 км    ясно 
+1.7 -1.7 78 1033  0.9  768  308  -3.4         
09 30.10.15 100 (В) 10 км    3/0 средняя 
[Ac trans]
+5.5 -2 58 +4  1032.4  -0.5  767  303           
12 30.10.15 060 (СВ) 10 км    ясно 
+6.9 -3.5 47 +6  1031.7  -0.5  767  302           
15 30.10.15 040 (СВ) 8000 м    ясно 
+3.3 -3.5 61 +1  1031.8  767  306    +7.1       
18 30.10.15 040 (СВ) 8000 м    3/0 верхняя 
[Ci fib]
+1.3 -4.1 67 1032.8  0.9  767  308           
21 30.10.15 020 (С) 8000 м    3/0 верхняя 
[Ci fib]
+1.3 -3.9 68 1033.8  0.9  768  309           
00 31.10.15 010 (С) 8000 м    ясно 
-0.6 -4.6 74 -3  1034.7  0.8  769  311           
03 31.10.15 360 (С) 8000 м    ясно 
-0.9 -5.5 71 -4  1035.8  770  312  -1.1         
06 31.10.15 010 (С) 10 км    ясно 
-0.1 -5.1 69 -3  1038.7  2.9  772  312  -1.6         
09 31.10.15 040 (СВ) 8-10{11}  10 км    6/6 840 м 
[Sc]
+3.3 -3.2 62 1040.2  1.6  773  308           
12 31.10.15 050 (СВ) 6{11}  10 км    4/4 600 м 
[Sc]
+5.3 -5 47 +3  1040.9  0.7  774  306           
15 31.10.15 040 (СВ) 8000 м    ясно 
+1.9 -5.4 58 1042.3  1.3  775  311    +5.4       
18 31.10.15 040 (СВ) 8000 м    ясно 
-0.7 -5.5 70 -3  1043.6  1.1  775  314           
21 31.10.15 040 (СВ) 8000 м    4/0 верхняя 
[Ci fib]
-1.9 -6.4 71 -3  1044.3  0.7  776  316           
00 01.11.15 тихо ()   8000 м    1/0 верхняя 
[Ci fib]
-4 -6.6 82 -4  1043.9  -0.4  776  318           
03 01.11.15 тихо ()   8000 м    1/0 верхняя 
[Ci fib]
-4.6 -6.4 87 -5  1043.3  -0.5  775  318  -5.1         
06 01.11.15 310 (СЗ) 10 км    5/0 верхняя 
[Ci fib]
+1.4 -4.7 64 +2  1043  -0.1             
Время (UTC), дата Ветер
(°,м/с) 
Видим.   Явления Облачность Т
(°С)
Тd
(°С)
f(%) Тe
(°С)
Pmin
(гПа)
dP
(гПа)
Po
(мм)
O2
(г/м3)
Тmin Tmax R s Состояние
почвы